[[{"header":{"parameterUnit":"m.s-1","parameterCategory":1,"la1":30.2991,"la2":30.254,"lo1":-89.0895,"lo2":-89.0444,"dy":0.0017,"dx":0.0017,"nx":28,"ny":28,"refTime":"2025-11-08T09:00:00:Z","depth":0,"parameterNumber":2,"parameterNumberName":"U-component_of_WINDS"},"data":[0,0,0,0,0,0,0,0,0,0,0,0,0,0,0,0,0,0,0,0,0,0,0,0,0,0,0,0,0,0,0,0,0,0,0,0,0,0,0,0,0,0,0,0,0,0,0,0,0,0,0,0,0,0,0,0,0,0,3.4015,3.4015,0,3.4067,3.4068,3.4069,3.4043,3.4041,3.404,3.4039,3.4091,3.4093,3.4096,0,0,0,0,0,0,0,0,0,0,0,0,0,3.3892,3.3894,3.4015,3.4015,3.4016,3.4067,3.4068,3.4069,3.4043,3.4041,3.404,3.4038,3.409,3.4093,3.4096,0,0,0,0,0,0,0,0,0,0,0,0,0,3.3945,3.3895,3.4015,3.4009,3.4009,3.4067,3.4068,3.4069,3.4043,3.4041,3.4039,3.4037,3.4089,3.4093,3.4097,3.4162,0,0,3.4109,3.4111,0,0,0,0,0,0,0,0,3.3942,3.3949,3.4009,3.401,3.401,3.4046,3.4044,3.41,3.4044,3.403,3.4039,3.4036,3.4078,3.4082,3.4097,3.4164,3.4167,3.4109,3.4112,3.4113,3.4114,0,0,0,0,0,0,0,3.3938,3.3947,3.4035,3.401,3.4011,3.4004,3.401,3.4054,3.4065,3.4031,3.403,3.4036,3.4077,3.4093,3.4098,3.4167,3.4109,3.4113,3.4115,3.4117,3.4294,3.4296,0,0,0,0,0,0,3.3935,3.3944,3.4034,3.4037,3.397,3.4008,3.4014,3.4037,3.4064,3.4066,3.4038,3.4035,3.4087,3.4093,3.4099,3.4179,3.4113,3.4117,3.4119,3.4291,3.4294,3.4297,0,0,0,0,0,0,3.3932,3.3943,3.4032,3.399,3.4001,3.4013,3.4038,3.4039,3.4054,3.4069,3.4071,3.4052,3.4086,3.4094,3.4147,3.418,3.4119,3.4122,3.4288,3.4292,3.4295,3.4337,0,0,0,0,0,0,3.3929,3.3942,3.3967,3.3991,3.4003,3.4079,3.404,3.4041,3.4062,3.4058,3.4083,3.4085,3.4085,3.4141,3.4151,3.4184,3.4126,3.4286,3.429,3.4294,3.4333,3.4342,3.4349,0,0,0,0,0,3.3925,3.3976,3.3968,3.3979,3.4035,3.4081,3.4088,3.4087,3.4064,3.4089,3.4099,3.4084,3.4175,3.4147,3.4158,3.4193,3.4283,3.4289,3.4294,3.4329,3.434,3.4349,0,0,0,0,0,0,3.3954,3.3979,3.3971,3.4031,3.4054,3.4076,3.4108,3.4098,3.4127,3.4122,3.412,3.4126,3.4182,3.4193,3.4161,3.4258,3.4226,3.4233,3.4249,3.4259,3.4267,3.4263,3.4129,0,0,0,0,0,3.3968,3.4004,3.4023,3.4075,3.4087,3.4096,3.4116,3.4113,3.4137,3.4146,3.4159,3.4182,3.4216,3.4238,3.427,3.4335,3.434,3.4364,3.4372,3.4379,3.4385,3.4422,3.4433,3.4314,3.4314,3.4313,0,0,3.3997,3.4015,3.4037,3.4082,3.4099,3.4136,3.4104,3.4144,3.4171,3.4152,3.4203,3.4215,3.424,3.43,3.4326,3.431,3.442,3.4386,3.4391,3.4394,3.4428,3.4439,3.4449,3.4317,3.4316,3.4316,0,0,3.4067,3.4085,3.413,3.4149,3.4176,3.4182,3.4193,3.4217,3.4224,3.4276,3.4263,3.4296,3.4354,3.4373,3.439,3.4472,3.4459,3.4482,3.4524,3.4559,3.4569,3.4577,3.4607,3.4617,3.4489,3.4489,3.4489,0,3.4099,3.4155,3.4154,3.4197,3.4217,3.4203,3.4249,3.4267,3.4303,3.4318,3.43,3.4374,3.439,3.4454,3.4474,3.4489,3.4502,3.4479,3.4568,3.4576,3.4584,3.4612,3.4623,3.4491,3.4491,3.4491,3.4491,0,3.4193,3.4232,3.4265,3.4302,3.4326,3.437,3.4377,3.4402,3.4398,3.4406,3.446,3.4479,3.4516,3.4531,3.4527,3.4596,3.4585,3.4568,3.4535,3.4598,3.4624,3.4635,3.4495,3.4494,3.4493,3.4493,0,0,3.4281,3.432,3.4332,3.4349,3.4379,3.4409,3.4454,3.449,3.4512,3.4538,3.4575,3.4626,3.4611,3.463,3.4629,3.466,3.4724,3.4639,3.4639,3.4654,3.4802,3.4815,3.4827,3.4717,3.4719,3.4721,3.48,0,3.4354,3.4432,3.4434,3.4505,3.4541,3.453,3.4568,3.4591,3.4601,3.4633,3.4643,3.4679,3.4656,3.4668,3.4699,3.471,3.4754,3.4705,3.4751,3.4753,3.4745,3.4841,3.4854,3.4928,3.481,3.4812,3.4813,0,3.4449,3.448,3.4555,3.4582,3.4597,3.4632,3.4666,3.4698,3.4724,3.4729,3.4753,3.4747,3.4793,3.476,3.4823,3.4789,3.4809,3.4818,3.482,3.4824,3.4786,3.4847,3.4951,3.4962,3.4829,3.4828,3.4827,0,3.4507,3.4567,3.462,3.4635,3.4668,3.4692,3.4707,3.4732,3.4754,3.4785,3.48,3.4835,3.4854,3.4882,3.4886,3.4862,3.495,3.4917,3.4955,3.4955,3.4973,3.4972,3.5082,3.4987,3.4987,3.4986,3.4986,0,3.4588,3.4634,3.4646,3.4679,3.4731,3.4734,3.4785,3.4798,3.4821,3.4855,3.4848,3.4881,3.4885,3.492,3.4924,3.4976,3.4984,3.499,3.499,3.499,3.4989,3.5002,3.4997,3.4989,3.4989,3.4988,3.4988,0,3.466,3.467,3.4727,3.4755,3.4763,3.48,3.4823,3.4854,3.4864,3.4909,3.4919,3.4934,3.4974,3.4982,3.5029,3.5032,3.5095,3.509,3.5086,3.5085,3.5123,3.5119,3.5245,3.5261,3.5156,3.5157,3.5158,0,3.4711,3.4746,3.4778,3.4802,3.4818,3.4855,3.4879,3.4884,3.4909,3.4943,3.4971,3.5011,3.5042,3.5108,3.5122,3.5159,3.5155,3.5197,3.516,3.516,3.5156,3.5154,3.5158,3.5203,3.5204,3.5205,3.5206,0,3.4799,3.4803,3.4838,3.4875,3.4904,3.4933,3.496,3.498,3.4989,3.5017,3.5059,3.5084,3.5134,3.5174,3.5211,3.5226,3.5218,3.5218,3.5229,3.5228,3.5225,3.5228,3.5104,3.5214,3.5214,3.5213,3.5212,3.5212,3.4862,3.4894,3.4922,3.4961,3.4983,3.501,3.5041,3.5056,3.5091,3.5132,3.5133,3.5179,3.5206,3.5256,3.5274,3.531,3.5297,3.5312,3.5316,3.532,3.5323,3.522,3.5317,3.5316,3.5316,3.5316,3.5316,0,3.4951,3.4969,3.5005,3.5045,3.5076,3.5067,3.5098,3.5125,3.5166,3.5192,3.5225,3.5274,3.5313,3.5332,3.5371,3.5396,3.5394,3.5406,3.5404,3.5408,3.5333,3.532,3.5408,3.5408,3.5408,3.5408,3.5408,3.5408,3.5,3.5054,3.5062,3.5127,3.5144,3.519,3.5208,3.5233,3.5255,3.531,3.5343,3.5356,3.538,3.5421,3.5457,3.5462,3.5476,3.5491,3.5494,3.5423,3.5413,3.5404,3.5392,3.5494,3.5494,3.5566,3.5567,3.5567]},{"header":{"parameterUnit":"m.s-1","parameterCategory":1,"la1":30.2991,"la2":30.254,"lo1":-89.0895,"lo2":-89.0444,"dy":0.0017,"dx":0.0017,"nx":28,"ny":28,"refTime":"2025-11-08T09:00:00:Z","depth":0,"parameterNumber":3,"parameterNumberName":"V-component_of_WINDS"},"data":[0,0,0,0,0,0,0,0,0,0,0,0,0,0,0,0,0,0,0,0,0,0,0,0,0,0,0,0,0,0,0,0,0,0,0,0,0,0,0,0,0,0,0,0,0,0,0,0,0,0,0,0,0,0,0,0,0,0,-9.1536,-9.1538,0,-9.1748,-9.1751,-9.1753,-9.1699,-9.1695,-9.1691,-9.1687,-9.1897,-9.1906,-9.1915,0,0,0,0,0,0,0,0,0,0,0,0,0,-9.1079,-9.1087,-9.1536,-9.1539,-9.1541,-9.1748,-9.1751,-9.1754,-9.17,-9.1695,-9.169,-9.1685,-9.1893,-9.1905,-9.1916,0,0,0,0,0,0,0,0,0,0,0,0,0,-9.1283,-9.109,-9.1536,-9.154,-9.1542,-9.1747,-9.1751,-9.1754,-9.1701,-9.1695,-9.1689,-9.1683,-9.189,-9.1903,-9.1917,-9.2129,0,0,-9.1961,-9.1967,0,0,0,0,0,0,0,0,-9.1271,-9.1299,-9.1536,-9.154,-9.1543,-9.1691,-9.1666,-9.188,-9.1703,-9.1641,-9.1687,-9.168,-9.1833,-9.1851,-9.1904,-9.2139,-9.2148,-9.1962,-9.197,-9.1977,-9.1981,0,0,0,0,0,0,0,-9.1257,-9.129,-9.162,-9.154,-9.1544,-9.1529,-9.1551,-9.1706,-9.1768,-9.1646,-9.1642,-9.1668,-9.1833,-9.1891,-9.1909,-9.2151,-9.1962,-9.1974,-9.1983,-9.1988,-9.257,-9.2577,0,0,0,0,0,0,-9.1241,-9.1278,-9.1613,-9.1626,-9.1389,-9.1542,-9.1567,-9.165,-9.1767,-9.1779,-9.1674,-9.1665,-9.187,-9.1892,-9.1916,-9.2172,-9.1976,-9.199,-9.1998,-9.2563,-9.2572,-9.2579,0,0,0,0,0,0,-9.1232,-9.1272,-9.1604,-9.1452,-9.1493,-9.1557,-9.165,-9.1657,-9.1715,-9.1788,-9.1798,-9.1721,-9.1866,-9.1896,-9.2077,-9.2179,-9.1996,-9.2009,-9.2555,-9.2566,-9.2575,-9.2686,0,0,0,0,0,0,-9.1219,-9.1268,-9.1351,-9.1454,-9.1501,-9.1764,-9.1656,-9.1666,-9.174,-9.1731,-9.1836,-9.1847,-9.1863,-9.2056,-9.2091,-9.2195,-9.202,-9.2546,-9.256,-9.2572,-9.2673,-9.2699,-9.2721,0,0,0,0,0,-9.1203,-9.1371,-9.1355,-9.1396,-9.1606,-9.177,-9.1797,-9.1815,-9.1749,-9.1831,-9.1879,-9.1844,-9.2162,-9.2075,-9.2114,-9.2224,-9.254,-9.2556,-9.2571,-9.2663,-9.2694,-9.272,0,0,0,0,0,0,-9.1275,-9.1385,-9.1368,-9.1576,-9.1665,-9.1761,-9.1866,-9.1847,-9.1954,-9.1941,-9.1955,-9.1979,-9.2165,-9.2212,-9.2114,-9.2435,-9.2341,-9.2365,-9.2397,-9.2428,-9.2451,-9.2435,-9.2032,0,0,0,0,0,-9.1316,-9.1443,-9.1531,-9.1705,-9.1751,-9.1801,-9.1873,-9.188,-9.1971,-9.2007,-9.2067,-9.2155,-9.2275,-9.2354,-9.2468,-9.268,-9.2702,-9.2774,-9.2798,-9.2817,-9.2837,-9.2954,-9.2987,-9.2631,-9.2631,-9.263,0,0,-9.1401,-9.1476,-9.1554,-9.1722,-9.1791,-9.1921,-9.1833,-9.1972,-9.2068,-9.2027,-9.2203,-9.2251,-9.235,-9.2548,-9.2638,-9.2593,-9.2941,-9.2837,-9.2851,-9.2862,-9.2973,-9.3007,-9.3037,-9.2641,-9.2639,-9.2638,0,0,-9.1621,-9.1691,-9.1845,-9.1917,-9.2025,-9.2057,-9.2094,-9.2195,-9.2226,-9.2403,-9.2376,-9.2488,-9.2694,-9.2767,-9.283,-9.308,-9.3052,-9.3117,-9.324,-9.3353,-9.3381,-9.3406,-9.3496,-9.3527,-9.3137,-9.3137,-9.3138,0,-9.1712,-9.1908,-9.1926,-9.207,-9.2144,-9.2117,-9.2272,-9.234,-9.2478,-9.2529,-9.2478,-9.2737,-9.2802,-9.3017,-9.3078,-9.313,-9.3172,-9.3105,-9.3376,-9.3401,-9.3425,-9.351,-9.3544,-9.3145,-9.3144,-9.3143,-9.3142,0,-9.2014,-9.215,-9.2261,-9.24,-9.2486,-9.2635,-9.2674,-9.2759,-9.2759,-9.2796,-9.2977,-9.3054,-9.3184,-9.3235,-9.3234,-9.3451,-9.342,-9.3372,-9.3278,-9.3466,-9.3546,-9.3579,-9.3155,-9.3152,-9.315,-9.3148,0,0,-9.2285,-9.2434,-9.2474,-9.2537,-9.2654,-9.2759,-9.2906,-9.3036,-9.3109,-9.3206,-9.3329,-9.3505,-9.3463,-9.3535,-9.3542,-9.3641,-9.3835,-9.3581,-9.3584,-9.3626,-9.4079,-9.4115,-9.4152,-9.3818,-9.3824,-9.3829,-9.4071,0,-9.2516,-9.2779,-9.28,-9.3036,-9.3162,-9.3138,-9.3266,-9.3351,-9.3391,-9.3501,-9.3543,-9.3669,-9.3603,-9.3646,-9.3744,-9.3791,-9.3926,-9.3774,-9.3931,-9.3936,-9.3908,-9.4195,-9.4232,-9.4457,-9.4103,-9.4108,-9.4112,0,-9.2821,-9.293,-9.3179,-9.3281,-9.3335,-9.345,-9.3572,-9.3679,-9.3774,-9.3795,-9.3878,-9.3872,-9.4021,-9.3923,-9.4128,-9.4024,-9.409,-9.4123,-9.4132,-9.4147,-9.4036,-9.4218,-9.4529,-9.4563,-9.4162,-9.4158,-9.4154,0,-9.2995,-9.3204,-9.338,-9.3435,-9.3557,-9.3639,-9.3693,-9.3783,-9.386,-9.3966,-9.4016,-9.4137,-9.4203,-9.4295,-9.4321,-9.4247,-9.4527,-9.443,-9.4548,-9.4547,-9.4608,-9.4604,-9.4934,-9.465,-9.4649,-9.4648,-9.4648,0,-9.3251,-9.3404,-9.346,-9.3569,-9.374,-9.3762,-9.393,-9.3979,-9.406,-9.4176,-9.4162,-9.4271,-9.4298,-9.4412,-9.4433,-9.4601,-9.463,-9.4651,-9.4654,-9.4653,-9.465,-9.4696,-9.4681,-9.4657,-9.4655,-9.4654,-9.4652,0,-9.3474,-9.3518,-9.3709,-9.381,-9.3839,-9.3961,-9.4047,-9.415,-9.4188,-9.4336,-9.4371,-9.443,-9.4563,-9.4599,-9.4757,-9.4771,-9.4969,-9.4958,-9.4938,-9.4938,-9.5054,-9.5043,-9.5426,-9.5477,-9.5158,-9.5161,-9.5164,0,-9.3634,-9.3753,-9.3868,-9.3947,-9.4005,-9.4131,-9.4211,-9.4238,-9.4321,-9.4441,-9.453,-9.4662,-9.4769,-9.4983,-9.5038,-9.516,-9.5151,-9.5277,-9.5169,-9.5164,-9.5154,-9.5147,-9.5159,-9.5297,-9.5301,-9.5303,-9.5306,0,-9.3915,-9.3932,-9.4049,-9.4176,-9.4272,-9.4372,-9.4467,-9.4531,-9.4571,-9.4665,-9.4803,-9.4887,-9.5051,-9.5182,-9.5305,-9.5358,-9.5339,-9.534,-9.5373,-9.5373,-9.5357,-9.5368,-9.4994,-9.533,-9.5328,-9.5326,-9.5325,-9.5324,-9.4113,-9.4217,-9.4316,-9.4447,-9.4522,-9.4612,-9.4715,-9.4767,-9.4884,-9.5022,-9.5029,-9.5179,-9.5272,-9.5436,-9.5496,-9.5612,-9.5574,-9.5623,-9.5635,-9.5647,-9.5658,-9.5339,-9.5635,-9.5634,-9.5633,-9.5633,-9.5632,0,-9.4393,-9.4456,-9.4577,-9.4713,-9.4816,-9.4792,-9.4896,-9.4984,-9.5117,-9.5207,-9.5314,-9.5473,-9.56,-9.5667,-9.5793,-9.5873,-9.5868,-9.5906,-9.59,-9.5913,-9.5684,-9.5643,-9.5908,-9.5908,-9.5908,-9.5908,-9.5908,-9.5908,-9.4552,-9.4728,-9.4756,-9.4969,-9.503,-9.5179,-9.5241,-9.5323,-9.5395,-9.5575,-9.5682,-9.5725,-9.5806,-9.5938,-9.6054,-9.607,-9.6117,-9.616,-9.6171,-9.5957,-9.5928,-9.5902,-9.5863,-9.617,-9.617,-9.639,-9.6392,-9.6393]}]]